TimeCDT,TemperatureF,Dew PointF,Humidity,Sea Level PressureIn,VisibilityMPH,Wind Direction,Wind SpeedMPH,Gust SpeedMPH,PrecipitationIn,Events,Conditions,WindDirDegrees,DateUTC
12:15 AM,55.4,50.9,85,29.96,10.0,Calm,Calm,-,N/A,,Clear,0,2013-09-23 05:15:00
12:35 AM,53.8,52.5,95,29.95,10.0,Calm,Calm,-,N/A,,Clear,0,2013-09-23 05:35:00
12:55 AM,53.2,52.5,97,29.95,10.0,Calm,Calm,-,N/A,,Clear,0,2013-09-23 05:55:00
1:15 AM,51.8,51.6,99,29.96,10.0,Calm,Calm,-,N/A,,Clear,0,2013-09-23 06:15:00
1:35 AM,52.3,52.3,100,29.96,10.0,Calm,Calm,-,N/A,,Clear,0,2013-09-23 06:35:00
1:55 AM,54.3,53.1,95,29.96,10.0,Calm,Calm,-,N/A,,Clear,0,2013-09-23 06:55:00
2:15 AM,54.5,52.7,94,29.96,10.0,Calm,Calm,-,N/A,,Clear,0,2013-09-23 07:15:00
2:35 AM,52.5,52.5,100,29.95,10.0,Calm,Calm,-,N/A,,Clear,0,2013-09-23 07:35:00
2:55 AM,51.8,51.8,100,29.95,10.0,Calm,Calm,-,N/A,,Clear,0,2013-09-23 07:55:00
3:15 AM,51.1,51.1,100,29.96,10.0,Calm,Calm,-,N/A,,Clear,0,2013-09-23 08:15:00
3:35 AM,50.7,50.7,100,29.96,7.0,Calm,Calm,-,N/A,,Clear,0,2013-09-23 08:35:00
3:55 AM,50.5,50.5,100,29.96,10.0,Calm,Calm,-,N/A,,Clear,0,2013-09-23 08:55:00
4:15 AM,50.4,50.4,100,29.96,7.0,Calm,Calm,-,N/A,,Clear,0,2013-09-23 09:15:00
4:35 AM,50.0,50.0,100,29.97,5.0,Calm,Calm,-,N/A,,Clear,0,2013-09-23 09:35:00
4:55 AM,48.4,48.4,100,29.97,2.5,Calm,Calm,-,N/A,,Clear,0,2013-09-23 09:55:00
5:15 AM,49.1,49.1,100,29.98,7.0,Calm,Calm,-,N/A,,Clear,0,2013-09-23 10:15:00
5:35 AM,49.6,49.6,100,29.98,7.0,Calm,Calm,-,N/A,,Clear,0,2013-09-23 10:35:00
5:55 AM,48.9,48.9,100,29.99,10.0,Calm,Calm,-,N/A,,Clear,0,2013-09-23 10:55:00
6:15 AM,48.7,48.7,100,29.99,5.0,Calm,Calm,-,N/A,,Clear,0,2013-09-23 11:15:00
6:35 AM,47.7,47.7,100,29.99,4.0,Calm,Calm,-,N/A,,Clear,0,2013-09-23 11:35:00
6:55 AM,48.2,48.2,100,30.00,10.0,Calm,Calm,-,N/A,,Clear,0,2013-09-23 11:55:00
7:15 AM,49.5,49.5,100,30.01,10.0,Calm,Calm,-,N/A,,Clear,0,2013-09-23 12:15:00
7:35 AM,52.0,52.0,100,30.01,10.0,Calm,Calm,-,N/A,,Clear,0,2013-09-23 12:35:00
7:55 AM,54.1,54.1,100,30.01,10.0,Calm,Calm,-,N/A,,Clear,0,2013-09-23 12:55:00
8:15 AM,56.1,55.6,98,30.01,10.0,Calm,Calm,-,N/A,,Clear,0,2013-09-23 13:15:00
8:35 AM,58.5,55.9,91,30.01,10.0,Calm,Calm,-,N/A,,Clear,0,2013-09-23 13:35:00
8:55 AM,60.8,55.8,83,30.02,10.0,Calm,Calm,-,N/A,,Clear,0,2013-09-23 13:55:00
9:15 AM,63.0,55.8,77,30.02,10.0,East,3.5,-,N/A,,Clear,80,2013-09-23 14:15:00
9:35 AM,64.6,54.1,69,30.03,10.0,ENE,3.5,-,N/A,,Clear,70,2013-09-23 14:35:00
9:55 AM,66.2,53.6,64,30.03,10.0,ESE,3.5,-,N/A,,Clear,110,2013-09-23 14:55:00
10:15 AM,68.0,53.4,60,30.03,10.0,ESE,4.6,-,N/A,,Clear,110,2013-09-23 15:15:00
10:35 AM,68.7,53.2,58,30.02,10.0,SE,6.9,-,N/A,,Clear,130,2013-09-23 15:35:00
10:55 AM,69.4,53.4,57,30.02,10.0,East,3.5,-,N/A,,Clear,90,2013-09-23 15:55:00
11:15 AM,70.9,53.1,53,30.02,10.0,SE,5.8,-,N/A,,Clear,130,2013-09-23 16:15:00
11:35 AM,70.9,52.5,52,30.01,10.0,ESE,6.9,-,N/A,,Clear,110,2013-09-23 16:35:00
11:55 AM,72.1,54.0,53,30.00,10.0,East,8.1,-,N/A,,Clear,100,2013-09-23 16:55:00
12:15 PM,72.5,52.9,50,30.00,10.0,SE,4.6,-,N/A,,Clear,130,2013-09-23 17:15:00
12:35 PM,73.0,53.8,51,29.99,10.0,ENE,3.5,-,N/A,,Clear,60,2013-09-23 17:35:00
12:55 PM,73.4,53.1,49,29.98,10.0,East,6.9,-,N/A,,Clear,80,2013-09-23 17:55:00
1:15 PM,74.3,52.9,47,29.98,10.0,NNE,3.5,-,N/A,,Clear,30,2013-09-23 18:15:00
1:35 PM,75.6,50.9,42,29.97,10.0,East,9.2,-,N/A,,Clear,80,2013-09-23 18:35:00
1:55 PM,76.3,50.9,41,29.96,10.0,SE,9.2,-,N/A,,Clear,140,2013-09-23 18:55:00
2:15 PM,76.5,52.0,42,29.96,10.0,ESE,6.9,-,N/A,,Clear,110,2013-09-23 19:15:00
2:35 PM,76.3,52.2,43,29.95,10.0,East,5.8,-,N/A,,Clear,80,2013-09-23 19:35:00
2:55 PM,76.8,50.9,40,29.95,10.0,ENE,6.9,-,N/A,,Clear,60,2013-09-23 19:55:00
3:15 PM,77.2,50.5,39,29.95,10.0,East,4.6,-,N/A,,Clear,90,2013-09-23 20:15:00
3:35 PM,77.2,49.1,37,29.95,10.0,East,4.6,-,N/A,,Clear,90,2013-09-23 20:35:00
3:55 PM,77.7,51.4,40,29.94,10.0,ESE,6.9,-,N/A,,Clear,120,2013-09-23 20:55:00
4:15 PM,77.4,51.3,40,29.95,10.0,ESE,8.1,-,N/A,,Clear,120,2013-09-23 21:15:00
4:35 PM,77.0,50.7,40,29.95,10.0,ESE,8.1,-,N/A,,Clear,110,2013-09-23 21:35:00
4:55 PM,76.5,51.3,41,29.94,10.0,ESE,5.8,-,N/A,,Clear,110,2013-09-23 21:55:00
5:15 PM,76.1,52.2,43,29.94,10.0,ESE,4.6,-,N/A,,Clear,110,2013-09-23 22:15:00
5:35 PM,75.6,52.5,45,29.93,10.0,ESE,3.5,-,N/A,,Clear,110,2013-09-23 22:35:00
5:55 PM,74.3,53.1,47,29.94,10.0,East,4.6,-,N/A,,Clear,100,2013-09-23 22:55:00
6:15 PM,73.2,53.8,50,29.94,10.0,East,3.5,-,N/A,,Clear,100,2013-09-23 23:15:00
6:35 PM,71.2,54.7,56,29.95,10.0,Calm,Calm,-,N/A,,Clear,0,2013-09-23 23:35:00
6:55 PM,66.2,55.9,69,29.94,10.0,Calm,Calm,-,N/A,,Clear,0,2013-09-23 23:55:00
7:15 PM,64.9,55.8,72,29.94,10.0,Calm,Calm,-,N/A,,Clear,0,2013-09-24 00:15:00
7:35 PM,63.1,56.3,78,29.94,10.0,Calm,Calm,-,N/A,,Clear,0,2013-09-24 00:35:00
7:55 PM,60.6,55.9,85,29.94,10.0,Calm,Calm,-,N/A,,Clear,0,2013-09-24 00:55:00
8:15 PM,61.0,56.7,86,29.95,10.0,Calm,Calm,-,N/A,,Clear,0,2013-09-24 01:15:00
8:35 PM,59.0,55.0,87,29.95,10.0,Calm,Calm,-,N/A,,Clear,0,2013-09-24 01:35:00
8:55 PM,58.3,57.9,99,29.96,10.0,Calm,Calm,-,N/A,,Clear,0,2013-09-24 01:55:00
9:15 PM,58.1,58.1,100,29.96,10.0,Calm,Calm,-,N/A,,Clear,0,2013-09-24 02:15:00
9:35 PM,57.4,57.4,100,29.96,10.0,Calm,Calm,-,N/A,,Clear,0,2013-09-24 02:35:00
9:55 PM,57.0,57.0,100,29.96,10.0,Calm,Calm,-,N/A,,Clear,0,2013-09-24 02:55:00
10:15 PM,55.6,55.6,100,29.96,10.0,Calm,Calm,-,N/A,,Clear,0,2013-09-24 03:15:00
10:35 PM,55.6,55.6,100,29.95,10.0,Calm,Calm,-,N/A,,Clear,0,2013-09-24 03:35:00
10:55 PM,56.3,56.3,100,29.96,10.0,Calm,Calm,-,N/A,,Clear,0,2013-09-24 03:55:00
11:15 PM,55.4,55.4,100,29.96,10.0,Calm,Calm,-,N/A,,Clear,0,2013-09-24 04:15:00
11:35 PM,55.4,55.4,100,29.95,10.0,Calm,Calm,-,N/A,,Clear,0,2013-09-24 04:35:00
11:55 PM,55.2,55.2,100,29.95,10.0,Calm,Calm,-,N/A,,Clear,0,2013-09-24 04:55:00